Location: Bacharowice
(49.9333°N, 19.5833°E)
Time: 23:53:11
(UTC+00:00)

Meteor 2-4 Rocket - Pass Details

Date: 11 May 2021
Orbit: 799 x 909 km, 81.2° (Epoch: 21 June)

Event Time Altitude Azimuth Distance (km) Brightness Sun altitude
Exits shadow 22:46:59 35° 226° (SW) 1,370 4.4 -21.9°
Maximum altitude 22:49:11 56° 286° (WNW) 1,020 4.1 -21.9°
Drops below altitude 10° 22:54:44 10° 5° (N) 2,477 7.3 -21.8°
Sets 22:57:11 0° 10° (N) 3,399 8.4 -21.8°
